Regional Weather Roundup
Issued by NWS Sioux Falls, SD

Home | Current Version | Previous Version | Text Only | Print | Product List | Glossary On
Versions: 1 2 3 4 5 6 7 8 9 10 11 12 13 14 15 16 17 18 19 20 21 22 23 24 25 26 27 28 29 30 31 32 33 34 35 36 37 38 39 40 41 42 43 44 45 46 47 48 49 50
000
ASUS43 KFSD 181302
RWRFSD

WEATHER ROUNDUP FOR SE SOUTH DAKOTA/SW MINNESOTA/NW IOWA
NATIONAL WEATHER SERVICE SIOUX FALLS SD
800 AM CDT FRI AUG 18 2017

NOTE: "FAIR" INDICATES FEW OR NO CLOUDS BELOW 12,000 FEET WITH NO
SIGNIFICANT WEATHER AND OR OBSTRUCTIONS TO VISIBILITY.


SDZ038>040-050-052>070-181400-
SOUTHEAST SOUTH DAKOTA

CITY           SKY/WX    TMP DP  RH WIND       PRES   REMARKS
BROOKINGS      CLOUDY    60  59  96 SW5       29.94R
CHAMBERLAIN    SUNNY     63  63 100 SW7       29.92S
HURON          CLOUDY    62  60  93 E7        29.91R
MADISON        FAIR      57  57 100 CALM      29.94R
MITCHELL       SUNNY     62  60  93 S5        29.91R FOG
SIOUX FALLS    MOSUNNY   63  62  97 CALM      29.94R
WINNER         FAIR      60  54  80 SW7       29.95R
$$

MNZ071-072-080-081-089-090-097-098-181400-
SOUTHWEST MINNESOTA

CITY           SKY/WX    TMP DP  RH WIND       PRES   REMARKS
FAIRMONT       LGT RAIN  63  61  93 NW7       29.94S
JACKSON        LGT RAIN  61  59  94 CALM      29.95R
LUVERNE        CLOUDY    61  55  82 NE5       29.94R
MARSHALL       LGT RAIN  61  60  97 S6        29.92F
MONTEVIDEO     DRIZZLE   61  61 100 SW5       29.89F
PIPESTONE      LGT RAIN  61  57  88 CALM      29.96R
REDWOOD FALLS  LGT RAIN  61  58  90 W5        29.91S FOG
TRACY          LGT RAIN  61  61 100 CALM      29.94S
WINDOM         LGT RAIN  61  57  88 CALM      29.94R
WORTHINGTON    CLOUDY    60  58  92 CALM      29.95R
$$

IAZ001>003-012>014-020>022-031-032-NEZ013-014-SDZ071-181400-
NORTHWEST IOWA

CITY           SKY/WX    TMP DP  RH WIND       PRES   REMARKS
CHEROKEE       CLOUDY    62  62 100 N7        29.92R
DENISON        CLOUDY    63  63 100 SE6       29.92S
ESTHERVILLE    CLOUDY    61  60  97 NW8       29.93R
LE MARS        MOSUNNY   64  61  88 NE9       29.91S
ORANGE CITY    SUNNY     64  63  94 CALM      29.92S
SHELDON        CLOUDY    63  57  82 E5        29.91R
SIOUX CITY     MOSUNNY   65  63  93 NW8       29.91R
SPENCER        CLOUDY    64  60  87 N6        29.94R
STORM LAKE     CLOUDY    64  61  88 CALM      29.92R
$$

ABBREVIATIONS USED IN REMARKS
   TC - TEMPERATURE IN CELSIUS
  WCI - WIND CHILL INDEX
   HX - HEAT INDEX
  VSB - VISIBILITY




USA.gov is the U.S. government's official web portal to all federal, state and local government web resources and services.